Regional Weather Roundup
Issued by NWS

Home | Current Version | Previous Version | Text Only | Print | Product List | Glossary Off
Versions: 1 2 3 4 5 6 7 8 9 10 11 12 13 14 15 16 17 18 19 20 21 22 23 24 25 26 27 28 29 30 31 32 33 34 35 36 37 38 39 40 41 42 43 44 45 46 47 48 49 50

000
ASUS43 KDMX 231406
RWRIA

WEATHER ROUNDUP FOR IOWA
NATIONAL WEATHER SERVICE DES MOINES IA
900 AM CDT WED MAY 23 2018

NOTE: "FAIR" INDICATES FEW OR NO CLOUDS BELOW 12,000 FEET WITH NO
SIGNIFICANT WEATHER AND/OR OBSTRUCTIONS TO VISIBILITY.

* - THESE STATIONS ARE NOT NWS STATIONS...THUS NOT UNDER NWS
QUALITY CONTROL.  THEY ALSO DO NOT REPORT WEATHER SUCH
AS PRECIPITATION OR FOG.

IAZ001>003-012>014-020>022-031>034-043>046-231500-
   NORTHWEST IOWA

CITY           SKY/WX    TMP DP  RH WIND       PRES   REMARKS
CARROLL *      PTSUNNY  N/A N/A N/A E12       30.10S
CHEROKEE *     MOSUNNY   69  63  82 E17G23    30.09S
DENISON *      SUNNY     73  66  78 S9G15     30.09R
LE MARS *      PTSUNNY   72  64  78 E14G21    30.05S
ORANGE CITY *  CLOUDY    72  64  78 SE16G23   30.06S
SHELDON *      CLOUDY    70  63  78 SE26G33   30.06R
SIOUX CITY     SUNNY     72  66  81 S9        30.03R
SPENCER        CLOUDY    69  59  70 SE21G35   30.10F
STORM LAKE *   SUNNY     68  63  83 E17G24    30.10F
$$

IAZ055>058-069>071-079>083-090>094-231500-
   SOUTHWEST IOWA

CITY           SKY/WX    TMP DP  RH WIND       PRES   REMARKS
ATLANTIC *     SUNNY     75  66  73 S10       30.09S
AUDUBON *      SUNNY     75  68  78 S9        30.10S
CLARINDA *     SUNNY     75  64  69 S8        30.12R
COUNCIL BLFS * SUNNY     75  75 100 S13       30.08R
CRESTON *      SUNNY     75  64  69 S12       30.13S
HARLAN  *      SUNNY     75  68  78 S10       30.11S
LAMONI         SUNNY     73  64  73 S8        30.12R
RED OAK *      SUNNY     77  68  73 S8        30.09R
SHENANDOAH *   SUNNY     77  66  69 S12       30.09R
$$

IAZ047>049-059>061-072>074-084-231500-
   CENTRAL IOWA

CITY           SKY/WX    TMP DP  RH WIND       PRES   REMARKS
AMES           CLOUDY    70  62  76 E7        30.13R
ANKENY *       MOSUNNY   72  64  78 SE7       30.14R
BOONE *        CLOUDY    70  63  78 E8        30.14R
CHARITON *     MOSUNNY   72  64  78 S9        30.13S
DES MOINES     MOSUNNY   73  65  75 SE8       30.12R
GRINNELL*      MOSUNNY   70  62  78 SE9       30.17R
KNOXVILLE *    MOSUNNY   72  64  78 SE8       30.12S
MARSHALLTOWN   CLOUDY    69  63  81 E10       30.15R
NEWTON *       SUNNY     70  63  78 SE12      30.14S
PELLA *        MOSUNNY   71  62  74 SE7       30.15R
PERRY *        FAIR      74  64  69 SE7       30.12R
$$

IAZ004>006-015-016-023>025-035-036-231500-
   NORTH CENTRAL IOWA

CITY           SKY/WX    TMP DP  RH WIND       PRES   REMARKS
ALGONA *       CLOUDY    64  61  88 SE14      30.12F
CLARION *      CLOUDY    64  61  88 SE15      30.16F
ESTHERVILLE    CLOUDY    63  60  90 SE17      30.10F
FORT DODGE *   CLOUDY    64  61  90 E16       30.15F
MASON CITY     LGT RAIN  63  63 100 S10       30.17R FOG
FOREST CITY *  LGT RAIN  63  63 100 SE15      30.11F
WEBSTER CITY * CLOUDY    68  64  88 E17       30.13S
IOWA FALLS *   HVY RAIN  64  63  94 E13       30.19R
$$

IAZ007>011-017>019-026>030-037>042-050>054-066-231500-
   NORTHEAST IOWA

CITY           SKY/WX    TMP DP  RH WIND       PRES   REMARKS
CEDAR RAPIDS   FAIR      69  62  78 SE9       30.17R
CHARLES CITY * RAIN      61  59  94 S7        30.18F
DECORAH *      FAIR      63  63 100 VRB7G14   30.18S
DUBUQUE        CLOUDY    65  60  84 S7        30.20R
MONTICELLO *   PTSUNNY   66  63  88 SE5       30.19R
OELWEIN *      PTSUNNY   66  61  82 S5        30.20R
WATERLOO       PTSUNNY   65  62  90 E5        30.17S
$$

IAZ064-065-067-068-078-231500-
   EAST CENTRAL IOWA

CITY           SKY/WX    TMP DP  RH WIND       PRES   REMARKS
DAVENPORT      FAIR      68  60  75 VRB6      30.21R
IOWA CITY      PTSUNNY   70  63  78 SE7       30.18R
MT. PLEASANT * SUNNY     72  61  68 S7        30.16R
MUSCATINE *    PTSUNNY   70  63  78 SE6       30.18R
QUAD CITIES    FAIR      70  62  76 SE6       30.18R
$$

IAZ062-063-075>077-085>089-095>099-231500-
   SOUTHEAST IOWA

CITY           SKY/WX    TMP DP  RH WIND       PRES   REMARKS
BURLINGTON     MOSUNNY   72  62  71 SE7       30.16S
FAIRFIELD *    SUNNY     72  61  68 S13       30.15S
FORT MADISON * SUNNY     72  63  73 SE8       30.17R
KEOKUK *       SUNNY     72  64  78 VRB7      30.16R
OSKALOOSA *    FAIR      71  62  74 S12       30.15R
CENTERVILLE *    N/A     73  68  83 SE12      30.16S
OTTUMWA        SUNNY     72  62  71 SE10      30.15R
WASHINGTON *   MOSUNNY   72  66  83 SE10      30.17S
$$

ABBREVIATIONS USED IN REMARKS
   TC - TEMPERATURES IN CELSIUS
  WCI - WIND CHILL INDEX
   HX - HEAT INDEX
  VSB - VISIBILITY
$$




USA.gov is the U.S. government's official web portal to all federal, state and local government web resources and services.